Regional Weather Roundup
Issued by NWS Charleston, SC

Current Version | Previous Version | Text Only | Print | Product List | Glossary Off
Versions: 1 2 3 4 5 6 7 8 9 10 11 12 13 14 15 16 17 18 19 20 21 22 23 24 25 26 27 28 29 30 31 32 33 34 35 36 37 38 39 40 41 42 43 44 45 46 47 48 49 50

000
ASUS42 KCHS 071912
RWRCHS

REGIONAL WEATHER ROUNDUP
NATIONAL WEATHER SERVICE CHARLESTON SC
300 PM EDT TUE JUL 07 2015

NOTE: "FAIR" INDICATES FEW OR NO CLOUDS BELOW 12,000 FEET WITH NO
SIGNIFICANT WEATHER AND/OR OBSTRUCTIONS TO VISIBILITY.

NOT ALL STATIONS ARE QUALITY CONTROLLED BY THE NATIONAL
WEATHER SERVICE. USE DATA WITH CAUTION...ESPECIALLY
DEWPOINT OBSERVATIONS.

SCZ027-030-031-034>040-042>050-072000-
...SOUTHEAST SOUTH CAROLINA...

CITY           SKY/WX    TMP DP  RH WIND       PRES   REMARKS
N CHARLESTON   TSTM      76  72  87 SE8       30.14R FOG
WATERFRONT PAR   N/A     84  76  77 S9        30.11F HX  93
MOUNT PLEASANT FAIR      88  75  66 SE12G17   30.13S THUNDER HX  97
JOHNS ISLAND   FAIR      86  77  74 S13       30.14R THUNDER HX  97
PINOPOLIS      NOT AVBL
MONCKS CORNER  FAIR      84  72  65 SE7       30.13R THUNDER
SUMMERVILLE    MOCLDY    88  73  62 CALM      30.13S HX  96
BEAUFORT MCAS  TSTM      77  73  87 S6        30.14F
BEAUFORT ARPT  TSTM      75  72  88 W6        30.15R VSB 1/2
HILTON HEAD IS PTSUNNY   86  73  66 NW9       30.16R THUNDER HX  93
WALTERBORO     MOCLDY    88  70  55 SW5       30.12F HX  92
ALLENDALE      FAIR      91  70  49 CALM      30.10F HX  97

...SOUTHERN MIDLANDS AND PEE DEE...

CITY           SKY/WX    TMP DP  RH WIND       PRES   REMARKS
GEORGETOWN     NOT AVBL
KINGSTREE      NOT AVBL
ORANGEBURG     MOSUNNY   86  73  65 NE3       30.10F HX  93
BARNWELL       MOCLDY    93  72  49 W8        30.11F HX 100
AIKEN          NOT AVBL
MANNING        FAIR      82  68  61 SW7       30.12S
COLUMBIA       MOSUNNY   93  68  43 W8G17     30.09F HX  97
SUMTER         SUNNY     91  71  52 SW8       30.08F HX  97
FLORENCE       MOSUNNY   91  69  48 S8        30.09F HX  96
MYRTLE BEACH   MOSUNNY   86  75  70 S14G21    30.14F HX  95
N MYRTLE BEACH MOSUNNY   85  76  74 S14G22    30.13F HX  94

$$

GAZ063-065-086>088-099>101-113>116-118-119-134>141-150-072000-
...SOUTHEAST GEORGIA...

CITY           SKY/WX    TMP DP  RH WIND       PRES   REMARKS
SAVANNAH ARPT  HVY RAIN  75  72  88 N8        30.13S VSB 3/4
HUNTER AAF     MOSUNNY   88  76  68 S15       30.09F THUNDER HX  99
FORT STEWART   PTSUNNY   92  70  49 SW5       30.09F HX  97
STATESBORO     NOT AVBL
SYLVANIA       PTCLDY    93  73  51 NW9       30.11F HX 101
CLAXTON        FAIR      90  72  55 W6        30.11F HX  96

...CSRA...CENTRAL AND FAR SOUTHEAST GEORGIA...

CITY           SKY/WX    TMP DP  RH WIND       PRES   REMARKS
THOMSON        MOSUNNY   91  74  56 CALM      30.17F HX 100
AUGUSTA-BUSH   PTSUNNY   91  70  49 W10       30.10F HX  96
AUGUSTA-DANIEL MOSUNNY   92  68  45 VRB5      30.12F HX  96
SWAINSBORO     FAIR      91  70  49 CALM      30.14F HX  97
VIDALIA        PTSUNNY   91  68  46 NW6       30.13F HAZE    HX  95
EASTMAN        FAIR      91  69  48 W3        30.16F HX  96
HAZLEHURST     FAIR      91  71  52 SW3       30.12F HX  97
ALMA           SUNNY     90  69  50 CALM      30.12F HX  94
WAYCROSS       SUNNY     92  74  54 N3        30.12F HX 101
JESUP          MOCLDY    91  72  52 S3        30.12F HX  98
BAXLEY         FAIR      91  70  49 CALM      30.12F HX  97
BRUNSWICK      MOSUNNY   90  72  55 SE8       30.13F HX  96
SAINT SIMONS   SUNNY     86  72  62 SE12      30.13F HX  92

$$

SCZ027-028-034-036>038-045-046-048>050-GAZ119-141-072000-
...LAKE AND SUPPLEMENTAL COASTAL OBSERVATIONS...

STATION/POSITION TIME  TEMP    WIND        PRES    WAVE   SWELL
                       AIR SEA DIR/SP/G            HT/PER HT/PER/DIR
                 (UTC) (F)     (DEG/KT/KT) (MB)    (FT/S) (FT/S/D)
UPR LAKE MARION  NOT AVBL
WINYAH BAY       NOT AVBL
LAKE MURRAY      1800   87     210/  8/ 10 1019.3S
ACE BASIN NERRS  NOT AVBL
FORT PULASKI     1800   84 83  150/  8/ 12 1021.1F
SAPELO ISLAND    1800   89     160/  9     1021.0S

$$

ANZ835-935-AMZ111-154-330-350-352-354-370-450-454-472-072000-
...C-MAN AND BUOY OBSERVATIONS...

STATION/POSITION TIME  TEMP    WIND        PRES    WAVE   SWELL
                       AIR SEA DIR/SP/G            HT/PER HT/PER/DIR
                 (UTC) (F)     (DEG/KT/KT) (MB)    (FT/S) (FT/S/D)
BUOY 41004       1850   82 83  200/ 10/ 12 1020.4F   3/ 8   3/ 8
BUOY 41008       1850   78 80  170/  8/  8 1020.8F   2/10   2/100/10
FOLLY BEACH CMAN 1800   83     190/ 11/ 13 1020.8F
CAPERS NEARSHORE 1808   81     190/ 14/ 16 1020.8F
FRIPP NEARSHORE  1800   82     190/ 12/ 14 1020.3F


STATION/POSITION TIME  TEMP    WIND        PRES    WAVE   SWELL
                       AIR SEA DIR/SP/G            HT/PER HT/PER/DIR
                 (UTC) (F)     (DEG/KT/KT) (MB)    (FT/S) (FT/S/D)
5E ST. MARYS GA  1821      80                N/A     2/ 9
FRYING PAN BUOY  1850   82 81  200/ 10/ 12 1021.4F   3/ 8   3/130/ 8
BUOY 41025       1850   81 83  220/ 16/ 17 1020.3F   3/ 9   2/120/ 9
CAPE LOOKOUT NC  1800   82     200/ 12/ 15 1020.5F
BUOY 41002       1850   83 82  210/ 12/ 14 1023.0F   4/ 9   3/150/ 9
BUOY 41010       1820   83 85  140/  4/  4 1022.4F
ST AUGUSTINE FL  1900   78 74  120/  9/ 10 1021.5F


$$


USA.gov is the U.S. government's official web portal to all federal, state and local government web resources and services.